Weather reports worldwide

Advertisment
Nürburg/Barweiler, Germany (10506): temperature & dewpoint: 11.10.2018 06:00:00 - 17.10.2018 06:00:00 (CEST)Nürburg/Barweiler, Germany (10506): temperature 5cm & temperature -5cm: 11.10.2018 06:00:00 - 17.10.2018 06:00:00 (CEST)Nürburg/Barweiler, Germany (10506): temperature -20cm & temperature -100cm: 11.10.2018 06:00:00 - 17.10.2018 06:00:00 (CEST)Nürburg/Barweiler, Germany (10506): wind speed & gusts: 11.10.2018 06:00:00 - 17.10.2018 06:00:00 (CEST)Nürburg/Barweiler, Germany (10506): wind direction: 11.10.2018 06:00:00 - 17.10.2018 06:00:00 (CEST)Nürburg/Barweiler, Germany (10506): reduced air pressure: 11.10.2018 06:00:00 - 17.10.2018 06:00:00 (CEST)Nürburg/Barweiler, Germany (10506): visibility: 11.10.2018 06:00:00 - 17.10.2018 06:00:00 (CEST)Nürburg/Barweiler, Germany (10506): sunshine duration: 11.10.2018 06:00:00 - 17.10.2018 06:00:00 (CEST)Nürburg/Barweiler, Germany (10506): precipitation: 11.10.2018 06:00:00 - 17.10.2018 06:00:00 (CEST)
Date & Time tt [°C] td [°C] tt 5cm [°C] tt -5cm [°C] tt -20cm [°C] tt -100cm [°C] ff [km/h] ff [kn] fx [km/h] fx [kn] dd ppp [hPa] vv [km] sd [min] rr [mm]
17.10.2018 06:00:00 11,5 8,3 9,8 10,4 13,7 13,8 7 4 8 4 SSW 1019,7 16 0 0,0
17.10.2018 05:00:00 11,6 8,4 9,2 10,6 13,9 13,8 6 4 9 5 SSW 1019,6 16 0 0,0
17.10.2018 04:00:00 9,9 7,5 7,8 11,0 14,0 13,8 6 3 9 5 W 1020,4 12 0 0,0
17.10.2018 03:00:00 10,5 7,7 8,3 11,4 14,2 13,8 7 4 10 5 W 1020,3 14 0 0,0
17.10.2018 02:00:00 12,7 8,9 9,1 11,9 14,4 13,8 4 2 9 5 S 1019,8 21 0 0,0
17.10.2018 01:00:00 14,1 9,0 9,7 12,4 14,6 13,8 3 2 8 5 SSE 1020,1 27 0 0,0
17.10.2018 00:00:00 13,0 8,2 9,9 12,9 14,7 13,8 5 3 13 7 E 1020,6 22 0 0,0
16.10.2018 23:00:00 16,2 9,1 12,7 13,5 14,9 13,8 8 4 13 7 ESE 1020,1 26 0 0,0
16.10.2018 22:00:00 15,9 8,7 11,8 14,1 14,9 13,8 5 3 10 5 ESE 1020,1 26 0 0,0
16.10.2018 21:00:00 17,7 8,8 14,2 14,8 15,0 13,8 3 2 9 5 SE 1019,4 27 0 0,0
16.10.2018 20:00:00 17,5 8,6 14,5 15,4 15,0 13,8 9 5 13 7 E 1019,2 30 0 0,0
16.10.2018 19:00:00 18,8 8,2 15,5 16,3 14,9 13,7 6 3 10 6 ESE 1018,6 30 17 0,0
16.10.2018 18:00:00 19,6 7,6 16,6 17,5 14,7 13,7 6 3 16 9 E 1018,2 37 29 0,0
16.10.2018 17:00:00 20,8 6,8 20,4 18,6 14,4 13,7 9 5 18 10 E 1018,1 35 29 0,0
16.10.2018 16:00:00 21,7 5,0 22,0 19,4 14,0 13,7 10 5 22 12 E 1018,0 31 60 0,0
16.10.2018 15:00:00 22,1 5,5 23,5 19,1 13,7 13,7 10 6 19 10 E 1017,9 25 56 0,0
16.10.2018 14:00:00 22,1 5,7 24,3 18,0 13,4 13,7 10 5 19 10 E 1017,9 21 58 0,0
16.10.2018 13:00:00 20,4 6,4 20,0 16,2 13,2 13,7 7 4 15 8 NNW 1018,3 25 59 0,0
16.10.2018 12:00:00 18,3 8,5 19,2 14,4 13,1 13,7 3 1 7 4 NW 1018,9 25 60 0,0
16.10.2018 11:00:00 14,6 7,3 14,5 12,3 13,1 13,7 4 2 8 4 SSW 1019,7 17 57 0,0
16.10.2018 10:00:00 12,8 7,1 12,8 10,9 13,2 13,7 0 0 6 3 N 1019,7 17 56 0,0
16.10.2018 09:00:00 11,0 6,4 9,5 10,1 13,4 13,7 4 2 8 5 SSW 1019,8 17 26 0,0
16.10.2018 08:00:00 9,2 6,2 6,9 10,2 13,6 13,7 4 2 6 4 SW 1019,6 17 0 0,0
16.10.2018 07:00:00 9,3 6,4 8,0 10,1 13,8 13,7 5 3 7 4 SW 1019,3 16 0 0,0
16.10.2018 06:00:00 9,0 5,9 6,8 10,2 14,0 13,7 4 2 5 3 WSW 1019,4 16 0 0,0
16.10.2018 05:00:00 10,2 6,3 6,6 10,6 14,2 13,7 0 0 3 2 N 1018,8 21 0 0,0
16.10.2018 04:00:00 10,5 6,6 7,0 11,1 14,5 13,7 3 2 7 4 SW 1018,6 25 0 0,0
16.10.2018 03:00:00 11,2 6,7 8,1 11,5 14,7 13,7 5 3 7 4 SW 1018,3 23 0 0,0
16.10.2018 02:00:00 11,8 6,4 9,3 12,0 14,9 13,7 7 4 9 5 SSW 1017,8 13 0 0,0
16.10.2018 01:00:00 12,7 7,0 8,8 12,6 15,1 13,7 3 2 5 3 WSW 1017,2 23 0 0,0
16.10.2018 00:00:00 13,9 6,9 9,1 13,2 15,3 13,7 3 1 6 3 SW 1016,9 25 0 0,0
15.10.2018 23:00:00 14,3 6,7 10,5 14,0 15,5 13,7 3 1 5 3 W 1016,7 26 0 0,0
15.10.2018 22:00:00 15,7 7,2 11,5 14,8 15,6 13,6 3 2 7 4 NNW 1016,2 28 0 0,0
15.10.2018 21:00:00 16,8 6,0 13,8 15,7 15,7 13,6 7 4 14 8 NW 1015,7 32 0 0,0
15.10.2018 20:00:00 18,3 6,5 15,1 16,5 15,7 13,6 6 3 11 6 E 1014,8 31 0 0,0
15.10.2018 19:00:00 20,5 5,1 16,7 17,5 15,6 13,6 4 2 7 4 NNE 1014,1 39 18 0,0
15.10.2018 18:00:00 21,6 4,5 17,0 18,8 15,4 13,6 3 2 11 6 NW 1013,3 39 57 0,0
15.10.2018 17:00:00 22,7 4,9 22,6 20,1 15,0 13,6 6 4 15 8 W 1012,7 45 60 0,0
15.10.2018 16:00:00 22,7 4,6 23,5 20,5 14,7 13,6 9 5 18 10 WSW 1012,5 24 60 0,0
15.10.2018 15:00:00 22,8 4,5 24,4 20,1 14,3 13,6 10 5 20 11 WSW 1012,5 33 60 0,0
15.10.2018 14:00:00 22,1 5,4 23,4 19,0 14,0 13,6 11 6 23 13 W 1012,7 26 60 0,0
15.10.2018 13:00:00 21,1 4,4 22,2 17,7 13,7 13,6 12 6 22 12 W 1013,3 24 60 0,0
15.10.2018 12:00:00 20,8 5,6 22,3 15,9 13,6 13,6 8 5 23 12 SSW 1013,2 22 58 0,0
15.10.2018 11:00:00 18,9 7,3 18,2 13,7 13,6 13,6 8 4 16 8 SSE 1013,4 24 58 0,0
15.10.2018 10:00:00 17,3 6,6 16,7 12,4 13,6 13,6 9 5 16 8 SSE 1013,4 23 60 0,0
15.10.2018 09:00:00 15,6 5,8 14,0 11,4 13,8 13,6 8 5 14 8 S 1013,3 33 27 0,0
15.10.2018 08:00:00 14,8 5,8 12,2 11,3 13,9 13,6 8 5 18 10 S 1012,7 30 0 0,0
15.10.2018 07:00:00 14,6 6,4 12,3 11,4 14,1 13,6 10 5 18 10 S 1012,1 31 0 0,0
15.10.2018 06:00:00 14,3 6,1 11,9 11,6 14,3 13,5 9 5 19 11 S 1012,0 31 0 0,0
15.10.2018 05:00:00 14,9 5,9 12,6 11,8 14,4 13,5 12 6 20 11 S 1011,7 31 0 0,0
15.10.2018 04:00:00 15,2 6,1 12,6 12,1 14,6 13,5 11 6 16 9 S 1011,6 33 0 0,0
15.10.2018 03:00:00 15,4 6,0 12,8 12,5 14,8 13,5 10 5 19 10 S 1011,7 34 0 0,0
15.10.2018 02:00:00 15,8 5,9 13,3 12,8 15,0 13,5 11 6 22 12 S 1011,5 36 0 0,0
15.10.2018 01:00:00 15,8 6,4 13,5 13,2 15,2 13,5 11 6 20 11 S 1011,3 41 0 0,0
15.10.2018 00:00:00 15,9 7,0 13,6 13,7 15,3 13,5 9 5 23 12 S 1011,0 38 0 0,0
14.10.2018 23:00:00 16,0 8,1 13,6 14,3 15,5 13,5 7 4 24 13 SSE 1010,9 37 0 0,0
14.10.2018 22:00:00 16,9 9,7 14,6 14,9 15,6 13,5 12 7 21 11 SE 1010,5 27 0 0,0
14.10.2018 21:00:00 17,7 9,4 15,3 15,6 15,6 13,5 11 6 29 16 SE 1010,2 30 0 0,0
14.10.2018 20:00:00 18,3 9,3 16,0 16,4 15,6 13,5 14 7 22 12 SE 1010,0 35 0 0,0
14.10.2018 19:00:00 19,6 10,2 17,0 17,4 15,5 13,5 11 6 23 12 SE 1009,3 35 13 0,0
14.10.2018 18:00:00 21,3 10,1 19,3 18,6 15,3 13,5 11 6 34 18 SSE 1008,7 42 58 0,0
14.10.2018 17:00:00 22,0 9,5 22,7 19,7 15,0 13,5 16 9 31 17 SSE 1008,6 23 60 0,0
14.10.2018 16:00:00 22,9 9,5 24,0 20,0 14,7 13,5 12 6 35 19 S 1009,0 22 60 0,0
14.10.2018 15:00:00 22,2 9,3 24,0 19,6 14,4 13,5 18 10 37 20 SSE 1009,4 30 60 0,0
14.10.2018 14:00:00 21,6 10,1 23,0 18,6 14,1 13,5 16 8 41 22 S 1010,0 16 60 0,0
14.10.2018 13:00:00 20,1 10,0 20,9 17,2 13,9 13,5 16 9 36 19 SSW 1010,8 22 60 0,0
14.10.2018 12:00:00 19,1 9,6 19,7 15,5 13,8 13,4 14 8 29 16 S 1011,1 16 60 0,0
14.10.2018 11:00:00 18,1 9,3 17,7 13,8 13,8 13,4 11 6 30 16 S 1011,6 19 60 0,0
14.10.2018 10:00:00 16,7 9,0 16,0 12,5 13,9 13,4 16 8 28 15 S 1011,8 23 60 0,0
14.10.2018 09:00:00 13,9 9,1 13,0 11,8 14,1 13,4 11 6 21 11 S 1012,3 22 29 0,0
14.10.2018 08:00:00 13,3 9,4 11,2 12,0 14,2 13,4 9 5 21 11 S 1012,4 24 0 0,0
14.10.2018 07:00:00 13,9 9,4 11,8 12,3 14,4 13,4 10 6 22 12 S 1012,6 26 0 0,0
14.10.2018 06:00:00 14,8 9,5 12,7 12,6 14,5 13,4 11 6 20 11 SSE 1012,8 26 0 0,0
14.10.2018 05:00:00 14,7 9,3 12,2 13,0 14,7 13,4 8 4 22 12 S 1013,2 25 0 0,0
14.10.2018 04:00:00 16,6 9,3 14,4 13,3 14,8 13,4 15 8 26 14 SE 1013,3 31 0 0,0
14.10.2018 03:00:00 16,5 9,4 14,2 13,6 15,0 13,4 11 6 25 14 SE 1014,1 28 0 0,0
14.10.2018 02:00:00 17,1 9,7 14,8 13,9 15,1 13,4 10 5 22 12 SSE 1014,3 29 0 0,0
14.10.2018 01:00:00 16,9 10,0 14,4 14,2 15,2 13,4 8 5 20 11 SSE 1014,8 30 0 0,0
14.10.2018 00:00:00 18,6 9,6 16,3 14,8 15,3 13,4 19 10 32 18 SE 1014,6 32 0 0,0
13.10.2018 23:00:00 18,9 9,6 16,6 15,1 15,4 13,4 19 10 34 18 SE 1015,1 30 0 0,0
13.10.2018 22:00:00 19,0 9,5 16,9 15,5 15,5 13,4 20 11 32 17 SE 1015,4 35 0 0,0
13.10.2018 21:00:00 19,2 9,4 16,9 16,1 15,6 13,4 18 10 29 16 SE 1015,8 41 0 0,0
13.10.2018 20:00:00 19,6 9,9 17,4 16,8 15,6 13,4 19 10 30 16 SE 1016,2 43 0 0,0
13.10.2018 19:00:00 20,8 9,9 18,2 17,8 15,4 13,3 13 7 24 13 SE 1016,1 51 27 0,0
13.10.2018 18:00:00 22,5 10,2 20,2 19,1 15,2 13,3 8 5 27 15 SSE 1016,0 39 58 0,0
13.10.2018 17:00:00 23,3 9,5 23,9 20,1 14,9 13,3 15 8 32 17 S 1016,4 33 60 0,0
13.10.2018 16:00:00 23,8 10,5 25,4 20,5 14,5 13,3 12 7 32 17 S 1016,9 27 60 0,0
13.10.2018 15:00:00 23,1 10,4 25,0 20,1 14,2 13,3 14 8 36 19 SSE 1017,9 16 60 0,0
13.10.2018 14:00:00 22,5 10,0 23,9 19,0 13,8 13,3 19 10 36 20 SSE 1018,7 16 60 0,0
13.10.2018 13:00:00 22,1 10,4 23,0 17,7 13,6 13,3 16 9 32 17 S 1019,7 22 60 0,0
13.10.2018 12:00:00 21,4 10,4 21,7 16,0 13,5 13,3 11 6 33 18 S 1020,2 27 60 0,0
13.10.2018 11:00:00 20,1 11,0 19,7 14,3 13,4 13,3 12 6 24 13 S 1020,5 23 60 0,0
13.10.2018 10:00:00 18,6 10,9 17,7 12,8 13,5 13,3 11 6 19 10 S 1020,9 27 60 0,0
13.10.2018 09:00:00 16,8 10,4 15,6 12,0 13,6 13,3 9 5 18 10 S 1021,4 26 31 0,0
13.10.2018 08:00:00 15,8 11,0 13,0 11,9 13,8 13,3 5 3 14 8 SSW 1021,7 37 0 0,0
13.10.2018 07:00:00 15,1 10,9 11,5 12,1 13,9 13,3 4 2 11 6 S 1022,4 37 0 0,0
13.10.2018 06:00:00 14,5 10,5 11,0 12,5 14,0 13,3 5 3 22 12 WSW 1022,5 35 0 0,0
13.10.2018 05:00:00 15,9 10,9 13,2 12,7 14,1 13,3 6 3 16 8 SSE 1021,9 38 0 0,0
13.10.2018 04:00:00 16,2 11,1 13,8 13,0 14,2 13,3 9 5 18 10 S 1022,0 35 0 0,0
13.10.2018 03:00:00 16,6 11,3 14,3 13,3 14,3 13,3 8 4 19 11 SSE 1022,0 38 0 0,0
13.10.2018 02:00:00 16,4 11,4 14,5 13,5 14,5 13,3 9 5 16 9 S 1021,8 35 0 0,0
13.10.2018 01:00:00 16,5 11,5 14,0 13,9 14,6 13,3 8 5 19 11 S 1022,1 35 0 0,0
13.10.2018 00:00:00 17,4 11,5 15,5 14,4 14,7 13,3 10 5 22 12 SSE 1022,1 37 0 0,0
12.10.2018 23:00:00 18,0 11,6 15,9 14,7 14,7 13,3 12 6 25 13 SE 1022,2 38 0 0,0
12.10.2018 22:00:00 18,3 12,0 16,1 15,0 14,8 13,3 12 7 20 11 SE 1022,0 40 0 0,0
12.10.2018 21:00:00 18,4 12,1 16,2 15,5 14,8 13,3 10 6 26 14 SSE 1021,8 37 0 0,0
12.10.2018 20:00:00 18,9 12,4 16,9 16,2 14,8 13,3 14 8 26 14 SE 1021,3 33 0 0,0
12.10.2018 19:00:00 19,2 12,5 17,0 17,2 14,6 13,3 8 4 21 12 SE 1021,1 35 3 0,0
12.10.2018 18:00:00 21,0 12,3 19,7 18,3 14,4 13,3 12 6 30 16 S 1020,5 28 51 0,0
12.10.2018 17:00:00 21,9 12,2 22,5 19,1 14,1 13,3 11 6 30 16 S 1020,4 24 54 0,0
12.10.2018 16:00:00 22,5 12,2 23,6 19,5 13,7 13,3 14 8 32 18 S 1020,0 27 60 0,0
12.10.2018 15:00:00 21,7 12,0 23,1 19,0 13,4 13,2 15 8 30 16 S 1020,0 18 60 0,0
12.10.2018 14:00:00 21,5 11,6 22,7 17,9 13,1 13,2 17 9 30 16 S 1019,9 24 60 0,0
12.10.2018 13:00:00 20,1 11,9 21,1 16,4 12,8 13,2 19 10 31 17 S 1020,3 18 47 0,0
12.10.2018 12:00:00 19,0 11,7 19,6 14,9 12,7 13,2 10 5 29 15 S 1020,7 39 1 0,0
12.10.2018 11:00:00 18,7 10,6 18,8 13,5 12,7 13,2 12 7 32 17 SSW 1020,4 52 45 0,0
12.10.2018 10:00:00 16,3 11,4 15,7 12,2 12,7 13,2 13 7 26 14 SSW 1020,3 23 60 0,0
12.10.2018 09:00:00 14,3 10,7 13,6 11,4 12,8 13,2 13 7 26 14 S 1020,1 19 33 0,0
12.10.2018 08:00:00 13,6 10,7 11,9 11,3 12,9 13,2 8 5 21 11 S 1019,4 24 0 0,0
12.10.2018 07:00:00 13,9 10,4 12,4 11,4 13,0 13,2 9 5 19 10 S 1018,8 24 0 0,0
12.10.2018 06:00:00 13,8 10,3 11,4 11,4 13,1 13,2 8 4 17 9 SSE 1018,2 23 0 0,0
12.10.2018 05:00:00 13,9 10,0 11,9 11,7 13,2 13,2 10 5 21 12 SSE 1017,3 23 0 0,0
12.10.2018 04:00:00 14,7 10,2 12,8 12,0 13,3 13,2 11 6 22 12 S 1017,1 25 0 0,0
12.10.2018 03:00:00 15,1 10,2 13,4 12,2 13,4 13,2 9 5 25 13 SSW 1016,8 26 0 0,0
12.10.2018 02:00:00 14,9 10,0 13,1 12,3 13,5 13,2 13 7 24 13 S 1016,1 21 0 0,0
12.10.2018 01:00:00 15,0 10,3 13,0 12,6 13,6 13,2 9 5 22 12 SSE 1015,5 18 0 0,0
12.10.2018 00:00:00 15,3 10,7 13,5 13,0 13,7 13,2 14 8 30 16 SE 1015,0 15 0 0,0
11.10.2018 23:00:00 15,7 10,7 14,0 13,3 13,8 13,2 17 9 27 15 SE 1015,2 15 0 0,0
11.10.2018 22:00:00 16,1 11,0 14,1 13,6 13,8 13,2 16 8 27 14 SE 1014,7 15 0 0,0
11.10.2018 21:00:00 16,5 10,5 14,5 14,1 13,9 13,2 14 8 27 14 SE 1014,5 17 0 0,0
11.10.2018 20:00:00 17,1 10,2 15,2 14,8 13,8 13,2 16 9 26 14 SE 1013,8 22 0 0,0
11.10.2018 19:00:00 18,2 10,0 16,2 15,7 13,7 13,2 13 7 27 15 SE 1013,2 29 37 0,0
11.10.2018 18:00:00 19,8 10,5 18,7 16,8 13,5 13,2 16 9 29 16 SE 1012,5 26 58 0,0
11.10.2018 17:00:00 20,6 10,4 22,7 17,0 13,2 13,2 13 7 22 12 SSE 1012,4 21 17 0,0
11.10.2018 16:00:00 19,9 9,7 20,6 17,1 13,0 13,2 10 6 28 15 SSE 1012,7 46 2 0,0
11.10.2018 15:00:00 19,1 10,4 19,7 16,7 12,7 13,2 10 5 19 10 SE 1012,8 28 4 0,0
11.10.2018 14:00:00 18,6 10,3 18,7 16,2 12,4 13,2 8 4 20 11 S 1013,2 34 0 0,0
11.10.2018 13:00:00 19,3 10,7 20,0 15,6 12,2 13,2 6 3 16 9 S 1013,3 23 20 0,0
11.10.2018 12:00:00 18,2 10,3 18,5 14,5 12,1 13,2 5 3 14 7 SSW 1013,4 21 44 0,0
11.10.2018 11:00:00 17,4 10,3 17,4 12,7 12,0 13,2 5 3 10 5 S 1013,5 14 17 0,0
11.10.2018 10:00:00 15,6 10,0 15,0 11,3 12,1 13,2 5 3 11 6 S 1013,7 15 48 0,0
11.10.2018 09:00:00 12,8 9,0 11,6 10,2 12,2 13,2 6 3 16 9 S 1014,1 9 34 0,0
11.10.2018 08:00:00 13,2 9,4 11,0 10,2 12,3 13,2 10 5 17 9 SSE 1013,1 11 0 0,0
11.10.2018 07:00:00 12,3 9,0 11,0 10,2 12,4 13,2 8 4 18 10 S 1013,0 11 0 0,0
11.10.2018 06:00:00 10,8 8,7 8,4 10,2 12,6 13,2 5 3 11 6 SW 1013,1 9 0 0,0

tt = temperature
td = dewpoint
tt 5cm = temperature 5cm
tt -5cm = temperature -5cm
tt -20cm = temperature -20cm
tt -100cm = temperature -100cm
ff = wind speed
fx = gusts
dd = wind direction
ppp = reduced air pressure
vv = visibility
sd = sunshine duration
rr = precipitation

Next stations